[[{"header":{"parameterUnit":"m.s-1","parameterCategory":1,"la1":30.2992,"la2":30.254,"lo1":-89.0895,"lo2":-89.0443,"dy":0.0025,"dx":0.0025,"nx":19,"ny":19,"refTime":"2026-03-31T21:00:00:Z","depth":0,"parameterNumber":2,"parameterNumberName":"U-component_of_WINDS"},"data":[0,0,0,-2.6256,-2.6256,-2.6261,-2.6261,-2.6278,-2.6278,0,0,0,0,0,0,0,0,0,0,0,-2.626,-2.626,-2.6256,-2.6256,-2.6261,-2.6261,-2.6278,-2.6278,0,0,0,0,0,0,0,0,0,0,0,-2.626,-2.626,-2.6261,-2.6256,-2.6261,-2.6261,-2.6278,-2.627,0,0,0,0,0,0,0,0,0,0,-2.6264,-2.6273,-2.626,-2.6261,-2.6256,-2.6261,-2.6261,-2.627,-2.6271,-2.628,0,-2.6289,0,-2.6284,-2.628,-2.628,0,0,0,-2.6252,-2.6272,-2.6268,-2.6261,-2.6256,-2.6261,-2.6258,-2.627,-2.6271,-2.6281,-2.6289,-2.6289,-2.6284,-2.628,-2.628,-2.6344,-2.6345,0,0,-2.6252,-2.6264,-2.6268,-2.6269,-2.6269,-2.6258,-2.6258,-2.6271,-2.628,-2.6289,-2.629,-2.6284,-2.628,-2.628,-2.6344,-2.6344,0,0,0,-2.6254,-2.6264,-2.626,-2.6269,-2.6269,-2.6258,-2.6258,-2.628,-2.6277,-2.629,-2.6285,-2.628,-2.6281,-2.6343,-2.6344,-2.638,0,0,0,-2.6253,-2.6265,-2.626,-2.6268,-2.6269,-2.6274,-2.6267,-2.6276,-2.6277,-2.6284,-2.628,-2.6281,-2.6343,-2.6344,-2.6377,-2.6394,0,0,0,-2.6258,-2.6266,-2.6268,-2.6268,-2.6271,-2.6274,-2.6272,-2.6276,-2.6275,-2.628,-2.6281,-2.6342,-2.6344,-2.6376,-2.6391,-2.6414,0,0,0,-2.6266,-2.6301,-2.6269,-2.6306,-2.6271,-2.6296,-2.6272,-2.629,-2.6299,-2.628,-2.6343,-2.6344,-2.6375,-2.6389,-2.6412,-2.6435,-2.6446,0,0,-2.6316,-2.6307,-2.6328,-2.63,-2.6333,-2.6294,-2.6334,-2.633,-2.632,-2.6337,-2.6338,-2.6378,-2.6391,-2.6414,-2.6505,-2.6513,0,0,0,-2.6348,-2.6362,-2.6369,-2.6378,-2.6376,-2.6375,-2.6365,-2.6364,-2.6377,-2.6331,-2.6393,-2.64,-2.6413,-2.6423,-2.6431,-2.6441,-2.635,-2.6349,-2.6349,-2.6436,-2.6421,-2.6453,-2.6438,-2.6447,-2.6436,-2.6442,-2.6438,-2.6421,-2.6436,-2.644,-2.6497,-2.651,-2.6515,-2.6526,-2.6452,-2.6452,-2.6452,-2.6452,-2.6508,-2.6526,-2.6501,-2.6523,-2.6507,-2.6526,-2.6517,-2.6504,-2.6519,-2.6492,-2.6503,-2.6474,-2.6525,-2.6533,-2.6455,-2.6454,-2.6454,-2.6454,-2.6453,-2.6563,-2.6569,-2.6567,-2.6577,-2.6588,-2.6572,-2.6588,-2.6573,-2.6559,-2.6569,-2.6572,-2.6571,-2.6568,-2.6572,-2.6572,-2.6572,-2.6572,-2.6573,-2.6573,-2.6621,-2.6617,-2.6632,-2.6633,-2.6636,-2.6639,-2.6629,-2.6632,-2.6632,-2.6619,-2.6619,-2.66,-2.6533,-2.6516,-2.6576,-2.6575,-2.6575,-2.6575,-2.6574,-2.6697,-2.6677,-2.67,-2.6704,-2.6703,-2.6715,-2.6695,-2.6703,-2.6704,-2.6712,-2.6691,-2.6644,-2.6634,-2.6628,-2.6613,-2.6694,-2.6694,-2.6694,-2.6694,-2.6743,-2.6736,-2.6756,-2.6762,-2.6767,-2.6752,-2.6778,-2.6771,-2.676,-2.6759,-2.6746,-2.6726,-2.6721,-2.6713,-2.6705,-2.6692,-2.6791,-2.6791,-2.6791,-2.6788,-2.6781,-2.6806,-2.6795,-2.6794,-2.6793,-2.6817,-2.6826,-2.681,-2.6794,-2.6759,-2.6754,-2.6723,-2.6713,-2.6695,-2.6683,-2.6658,0,0]},{"header":{"parameterUnit":"m.s-1","parameterCategory":1,"la1":30.2992,"la2":30.254,"lo1":-89.0895,"lo2":-89.0443,"dy":0.0025,"dx":0.0025,"nx":19,"ny":19,"refTime":"2026-03-31T21:00:00:Z","depth":0,"parameterNumber":3,"parameterNumberName":"V-component_of_WINDS"},"data":[0,0,0,2.86,2.86,2.8597,2.8597,2.8588,2.8588,0,0,0,0,0,0,0,0,0,0,0,2.8598,2.8598,2.86,2.86,2.8597,2.8597,2.8588,2.8588,0,0,0,0,0,0,0,0,0,0,0,2.8598,2.8598,2.8598,2.86,2.8597,2.8597,2.8588,2.8592,0,0,0,0,0,0,0,0,0,0,2.8595,2.8591,2.8598,2.8598,2.86,2.8597,2.8597,2.8592,2.8592,2.8587,0,2.8584,0,2.8586,2.8587,2.8587,0,0,0,2.8601,2.8592,2.8594,2.8598,2.86,2.8597,2.8599,2.8592,2.8591,2.8587,2.8584,2.8584,2.8586,2.8587,2.8587,2.8564,2.8564,0,0,2.8601,2.8596,2.8594,2.8593,2.8595,2.8599,2.8599,2.8592,2.8587,2.8584,2.8583,2.8586,2.8587,2.8587,2.8564,2.8564,0,0,0,2.8601,2.8596,2.8598,2.8594,2.8594,2.8599,2.8598,2.8588,2.8589,2.8583,2.8586,2.8587,2.8587,2.8564,2.8564,2.8553,0,0,0,2.8601,2.8596,2.8598,2.8595,2.8594,2.8591,2.8595,2.859,2.8589,2.8586,2.8587,2.8587,2.8564,2.8564,2.8554,2.8548,0,0,0,2.8599,2.8595,2.8595,2.8594,2.8594,2.8591,2.8592,2.859,2.859,2.8587,2.8587,2.8565,2.8564,2.8554,2.8549,2.8542,0,0,0,2.8595,2.8582,2.8594,2.8581,2.8594,2.8585,2.8592,2.8585,2.8581,2.8587,2.8564,2.8564,2.8555,2.855,2.8543,2.8536,2.8533,0,0,2.8576,2.8579,2.8572,2.8583,2.8572,2.8586,2.8572,2.8572,2.8574,2.8567,2.8566,2.8554,2.8549,2.8542,2.8514,2.8511,0,0,0,2.8564,2.8559,2.8557,2.8555,2.8556,2.8557,2.856,2.8561,2.8556,2.857,2.8549,2.8546,2.8543,2.8539,2.8537,2.8535,2.8562,2.8562,2.8562,2.8528,2.8536,2.8525,2.8534,2.8531,2.8536,2.8535,2.8536,2.8541,2.8536,2.8534,2.8516,2.8513,2.8511,2.8508,2.8531,2.8531,2.8531,2.8531,2.8502,2.8496,2.8508,2.8502,2.851,2.8504,2.8509,2.8514,2.851,2.8518,2.8515,2.8524,2.8508,2.8506,2.853,2.853,2.853,2.853,2.853,2.848,2.8479,2.8482,2.8481,2.848,2.8488,2.8485,2.8491,2.8497,2.8494,2.8493,2.8493,2.8495,2.8493,2.8493,2.8493,2.8493,2.8493,2.8493,2.8456,2.846,2.8457,2.8461,2.8462,2.8464,2.8471,2.8471,2.8473,2.8478,2.8478,2.8485,2.8505,2.851,2.8492,2.8492,2.8492,2.8492,2.8492,2.8426,2.8435,2.8431,2.8433,2.8439,2.8438,2.8448,2.8449,2.845,2.8449,2.8457,2.8471,2.8474,2.8476,2.848,2.8455,2.8455,2.8455,2.8455,2.8408,2.8412,2.8411,2.8414,2.8416,2.8426,2.8421,2.8427,2.8434,2.8436,2.844,2.8447,2.8448,2.8451,2.8453,2.8458,2.8427,2.8427,2.8427,2.8392,2.8396,2.8392,2.8402,2.8408,2.8412,2.8409,2.841,2.842,2.8426,2.8437,2.8438,2.8449,2.8452,2.8457,2.8461,2.8469,0,0]}]]